Torna al catalogo

YAM-10

AttivoRadioamatoreSSO
NORAD 64580·PAYLOAD·🇺🇸 United States

Lanciato Jun 23, 2025 da Vandenberg Space Force Base

Loading…

Prossimi Passaggi (prossime 24 ore)

TLE

AggiornatoSource: Space-Track

Epoca: Sep 14, 2026, 17:57 UTC

1 64580U 25135BE  26257.74805852  .00001360  00000-0  13943-3 0  9993
2 64580  97.7802  10.4044 0004385  67.8671 292.3013 14.92070050 67210

Traccia YAM-10 in tempo reale con AllMySat

Download on the App Store